HJS-9B

基本信息
目录编号:
68832
目录名称:
HJS-9B
国际标识:
2026-091B
轨道中心:
EARTH
卫星名称:
HJS-9B
卫星全名:
HJS-9B
卫星状态:
在轨 (已飞行7 天)
发射日期:
2026-04-24 UTC
国别 :
中国 (CN)
星等 :
--
轨道信息
数据来源 国际轨道数据
星历时间: 2026-05-01T00:47:24+0800
19小时前
查看轨道信息
半长轴: 6886.549km
偏心率: 0.0008863
轨道倾角: 55.001°
近地点辐角 291.998°
升交点赤经 229.196°
平近点角 68.009°
近地点: 502.308km
远地点: 514.516km
周期: 94.790分钟
每日圈数: 15.191488
详细信息
使用方式:
暂无
2D轨道图
3D轨道图
轨道高度分析图
轨道倾角分析图
轨道综合分析图
查看轨道综合分析图